User: anonymous   Login
Location: Unspecified
(0.0000°N, 0.0000°E)
Time: 19:16:44
(UTC+00:00)
Language:

STARLINK-11360 [DTC] - Orbit

View from above orbital plane
View from above orbital plane
View from above satellite
View from above satellite

Ground track
Ground track

The orbit is defined by the following mean orbital elements,

1 61586U          26144.67531847 +.00000000 +00000-0 +10673-4 0 00008
2 61586  53.1603 281.7447 0001006  57.1178 302.9937 15.69705062    09
Epoch (UTC): 24 May 2026 16:12:27
Eccentricity: 0.0001006
inclination: 53.1603°
perigee height: 359 km
apogee height: 360 km
right ascension of ascending node: 281.7447°
argument of perigee: 57.1178°
revolutions per day: 15.69705062
mean anomaly at epoch: 302.9937°

The dashed part of the orbit path shows where the satellite is in the earth's shadow,  

DLR